Regional Weather Roundup
Issued by NWS Charleston, SC

Current Version | Previous Version | Graphics & Text | Print | Product List | Glossary On
Versions: 1 2 3 4 5 6 7 8 9 10 11 12 13 14 15 16 17 18 19 20 21 22 23 24 25 26 27 28 29 30 31 32 33 34 35 36 37 38 39 40 41 42 43 44 45 46 47 48 49 50
000
ASUS42 KCHS 251512
RWRCHS
REGIONAL WEATHER ROUNDUP
NATIONAL WEATHER SERVICE CHARLESTON SC
1100 AM EDT SAT APR 25 2015

NOTE: "FAIR" INDICATES FEW OR NO CLOUDS BELOW 12,000 FEET WITH NO
SIGNIFICANT WEATHER AND/OR OBSTRUCTIONS TO VISIBILITY.

NOT ALL STATIONS ARE QUALITY CONTROLLED BY THE NATIONAL
WEATHER SERVICE. USE DATA WITH CAUTION...ESPECIALLY
DEWPOINT OBSERVATIONS.

SCZ027-030-031-034>040-042>050-251600-
...SOUTHEAST SOUTH CAROLINA...

CITY           SKY/WX    TMP DP  RH WIND       PRES   REMARKS
N CHARLESTON   LGT RAIN  67  62  84 S5        29.95R
WATERFRONT PRK   N/A     70 N/A N/A S7          N/A
MOUNT PLEASANT LGT RAIN  68  64  88 MISG      29.94R
PINOPOLIS      NOT AVBL
MONCKS CORNER  RAIN      66  61  82 CALM      29.95R
SUMMERVILLE    NOT AVBL
BEAUFORT MCAS  TSTM      67  65  93 CALM      29.94R FOG
BEAUFORT ARPT  TSTM      68  66  94 CALM      29.93R
HILTON HEAD IS TSTM      70  66  88 CALM      29.92R
WALTERBORO     RAIN      63  61  94 CALM      29.94S
ALLENDALE      RAIN      63  61  94 CALM      29.91F VSB 3/4

...SOUTHERN MIDLANDS AND PEE DEE...

CITY           SKY/WX    TMP DP  RH WIND       PRES   REMARKS
GEORGETOWN     NOT AVBL
KINGSTREE      NOT AVBL
ORANGEBURG     LGT RAIN  62  59  90 S5        29.92F
BARNWELL       LGT RAIN  61  61 100 SE9       29.88F
AIKEN          DRIZZLE   57  55  94 S8        29.85F
MANNING        LGT RAIN  59  50  72 CALM      29.93F
COLUMBIA       LGT RAIN  62  59  90 SE9       29.84F
SUMTER         LGT RAIN  60  58  93 S6        29.89F
FLORENCE       LGT RAIN  59  55  87 S8        29.92F
MYRTLE BEACH   CLOUDY    63  55  77 W6        29.97R
N MYRTLE BEACH LGT RAIN  63  55  75 W5        29.95R

$$

GAZ063-065-086>088-099>101-113>116-118-119-134>141-150-251600-
...SOUTHEAST GEORGIA...

CITY           SKY/WX    TMP DP  RH WIND       PRES   REMARKS
SAVANNAH ARPT  TSTM      70  65  84 SE5       29.89F
HUNTER AAF     LGT RAIN  70  68  94 SE8       29.86F
FORT STEWART   TSTM      68  66  94 VRB1      29.86F VSB 1
STATESBORO     TSTM      63  63 100 W5        29.94R
SYLVANIA       TSTM      63  63 100 CALM      29.95R VSB 1
CLAXTON        TSTM      64  64 100 CALM      29.86S VSB 3/4

...CSRA...CENTRAL AND FAR SOUTHEAST GEORGIA...

CITY           SKY/WX    TMP DP  RH WIND       PRES   REMARKS
THOMSON        CLOUDY    63  63 100 CALM      29.86F
AUGUSTA-BUSH   LGT RAIN  59  58  96 SE7       29.84F FOG
AUGUSTA-DANIEL CLOUDY    59  57  93 SE12      29.83F FOG
SWAINSBORO     NOT AVBL
VIDALIA        TSTM      64  63  94 N16G25    29.87R VSB 1/2
EASTMAN        HVY RAIN  64  64 100 S3        29.90R
HAZLEHURST     CLOUDY    70  68  95 S8G20     29.84S
ALMA           CLOUDY    71  66  84 SW14G24   29.88R
WAYCROSS       LGT RAIN  73  71  93 SW10      29.89R
JESUP          LGT RAIN  72  70  94 SW7       29.87F
BAXLEY         CLOUDY    72  68  88 S15       29.86S
BRUNSWICK      CLOUDY    73  66  78 S9        29.89F
SAINT SIMONS   CLOUDY    72  67  84 S10       29.89F

$$

SCZ027-028-034-036>038-045-046-048>050-GAZ119-141-251600-
...LAKE AND SUPPLEMENTAL COASTAL OBSERVATIONS...

STATION/POSITION TIME  TEMP    WIND        PRES    WAVE   SWELL
                       AIR SEA DIR/SP/G            HT/PER HT/PER/DIR
                 (UTC) (F)     (DEG/KT/KT) (MB)    (FT/S) (FT/S/D)
UPR LAKE MARION  NOT AVBL
WINYAH BAY       NOT AVBL
LAKE MURRAY      1400   60     190/  9/ 11 1012.5F
ACE BASIN NERRS  NOT AVBL
FORT PULASKI     1406   71 70  160/  5/  9 1013.1F
SAPELO ISLAND    1400   72     160/ 11     1012.0F

$$

ANZ835-935-AMZ111-154-330-350-352-354-370-450-454-472-251600-
...C-MAN AND BUOY OBSERVATIONS...

STATION/POSITION TIME  TEMP    WIND        PRES    WAVE   SWELL
                       AIR SEA DIR/SP/G            HT/PER HT/PER/DIR
                 (UTC) (F)     (DEG/KT/KT) (MB)    (FT/S) (FT/S/D)
BUOY 41004       1450   72 71  170/ 12/ 14 1013.6F   3/ 8   2/ 8
BUOY 41008       1450   70 69  160/ 12/ 14 1012.7F   2/ 8   2/ 70/ 8
FOLLY BEACH CMAN 1500   69     160/  7/  7 1014.1R
CAPERS NEARSHORE 1408   69     170/  6/ 10   N/A
FRIPP NEARSHORE  1400   70     150/ 10/ 12 1012.6F


STATION/POSITION TIME  TEMP    WIND        PRES    WAVE   SWELL
                       AIR SEA DIR/SP/G            HT/PER HT/PER/DIR
                 (UTC) (F)     (DEG/KT/KT) (MB)    (FT/S) (FT/S/D)
5E ST. MARYS GA  1421      70                N/A     3/13   2/110/13
FRYING PAN BUOY  1450   70 71  220/ 17/ 21 1014.4R   4/ 9   2/ 90/ 9
BUOY 41025       1450   62 72  320/ 12/ 14 1013.6S   3/ 8   2/ 60/ 8
CAPE LOOKOUT NC  1500   65     290/  3/  4 1013.3S
BUOY 41002       1450   65 71  190/ 10/ 12 1016.3F   5/10   5/ 10/10
BUOY 41010       1420   77 79  160/ 12/ 14 1014.7F
ST AUGUSTINE FL  1500   76 69  180/  9/ 12 1014.3R


$$



USA.gov is the U.S. government's official web portal to all federal, state and local government web resources and services.